User: anonymous   Login
Location: Unspecified
(0.0000°N, 0.0000°E)
Time: 07:47:32
(UTC+00:00)
Language:

ESSA 7 - Orbit

View from above orbital plane
View from above orbital plane
View from above satellite
View from above satellite

Ground track
Ground track

The orbit data is extracted from the following two-line orbital elements,

1  3345U 68069A   18112.97216231 -.00000044 +00000-0 -58602-5 0  9994
2  3345 101.4554 150.5727 0026412 225.3229 197.0124 12.52972582272103
Epoch (UTC): 22 April 2018 23:19:54
Eccentricity: 0.0026412
inclination: 101.4554°
perigee height: 1431 km
apogee height: 1473 km
right ascension of ascending node: 150.5727°
argument of perigee: 225.3229°
revolutions per day: 12.52972582
mean anomaly at epoch: 197.0124°
orbit number at epoch: 27210

The dashed part of the orbit path shows where the satellite is in the earth's shadow,  

DLR